owner,sensor,date,latitude,longitude,vertical_datum,direction_of_sea_water_velocity,sea_water_speed,upward_sea_water_velocity,qcFlag 
TABS,ioos:station:wmo:42048:1,2005-11-01T00:00:00Z,27.9396,-96.8429,2.0,107.8640713,6.030762804,-99999.0,'11133222,11111222,99999999' 
TABS,ioos:station:wmo:42048:1,2005-11-01T00:30:00Z,27.9396,-96.8429,2.0,115.7558912,6.650729283,-99999.0,'11133222,11111222,99999999' 
TABS,ioos:station:wmo:42048:1,2005-11-01T01:00:00Z,27.9396,-96.8429,2.0,153.9656077,15.4474205,-99999.0,'11111222,11111222,99999999' 
TABS,ioos:station:wmo:42048:1,2005-11-01T01:30:00Z,27.9396,-96.8429,2.0,199.185636,20.50913211,-99999.0,'11111222,11111222,99999999' 
TABS,ioos:station:wmo:42048:1,2005-11-01T02:00:00Z,27.9396,-96.8429,2.0,211.3156966,18.41243601,-99999.0,'11111222,11111222,99999999' 
TABS,ioos:station:wmo:42048:1,2005-11-01T02:30:00Z,27.9396,-96.8429,2.0,209.659162,20.79444637,-99999.0,'11111222,11111222,99999999' 
TABS,ioos:station:wmo:42048:1,2005-11-01T03:00:00Z,27.9396,-96.8429,2.0,213.7279754,20.80126198,-99999.0,'11111222,11111222,99999999' 
TABS,ioos:station:wmo:42048:1,2005-11-01T03:30:00Z,27.9396,-96.8429,2.0,227.4436364,22.38614974,-99999.0,'11111222,11111222,99999999' 
TABS,ioos:station:wmo:42048:1,2005-11-01T04:00:00Z,27.9396,-96.8429,2.0,226.6466039,24.60333717,-99999.0,'11111222,11111222,99999999' 
TABS,ioos:station:wmo:42048:1,2005-11-01T04:30:00Z,27.9396,-96.8429,2.0,226.5822059,26.11634354,-99999.0,'11111222,11111222,99999999' 
TABS,ioos:station:wmo:42048:1,2005-11-01T05:00:00Z,27.9396,-96.8429,2.0,230.3487244,24.19649768,-99999.0,'11111222,11111222,99999999' 
TABS,ioos:station:wmo:42048:1,2005-11-01T05:30:00Z,27.9396,-96.8429,2.0,221.0008917,28.59430013,-99999.0,'11111222,11111222,99999999' 
TABS,ioos:station:wmo:42048:1,2005-11-01T06:30:00Z,27.9396,-96.8429,2.0,228.8433239,32.80576321,-99999.0,'11111222,11111222,99999999' 
TABS,ioos:station:wmo:42048:1,2005-11-01T07:00:00Z,27.9396,-96.8429,2.0,223.3484241,29.93719092,-99999.0,'11111222,11111222,99999999' 
TABS,ioos:station:wmo:42048:1,2005-11-01T07:30:00Z,27.9396,-96.8429,2.0,224.584113,22.42294584,-99999.0,'11111222,11111222,99999999' 
TABS,ioos:station:wmo:42048:1,2005-11-01T08:00:00Z,27.9396,-96.8429,2.0,221.3447958,25.73445939,-99999.0,'11111222,11111222,99999999' 
TABS,ioos:station:wmo:42048:1,2005-11-01T08:30:00Z,27.9396,-96.8429,2.0,216.4330812,21.78863236,-99999.0,'11111222,11111222,99999999' 
TABS,ioos:station:wmo:42048:1,2005-11-01T09:00:00Z,27.9396,-96.8429,2.0,221.6832505,21.87917046,-99999.0,'11111222,11111222,99999999' 
TABS,ioos:station:wmo:42048:1,2005-11-01T10:00:00Z,27.9396,-96.8429,2.0,230.0319185,24.42569344,-99999.0,'11111222,11111222,99999999' 
TABS,ioos:station:wmo:42048:1,2005-11-01T10:30:00Z,27.9396,-96.8429,2.0,226.5981531,29.15121438,-99999.0,'11111222,11111222,99999999' 
TABS,ioos:station:wmo:42048:1,2005-11-01T11:00:00Z,27.9396,-96.8429,2.0,222.5071719,23.73882053,-99999.0,'11111222,11111222,99999999' 
TABS,ioos:station:wmo:42048:1,2005-11-01T11:30:00Z,27.9396,-96.8429,2.0,223.4383177,21.53939878,-99999.0,'11111222,11111222,99999999' 
TABS,ioos:station:wmo:42048:1,2005-11-01T12:00:00Z,27.9396,-96.8429,2.0,223.0568314,20.02263219,-99999.0,'11111222,11111222,99999999' 
TABS,ioos:station:wmo:42048:1,2005-11-01T12:30:00Z,27.9396,-96.8429,2.0,216.8860558,20.89200086,-99999.0,'11111222,11111222,99999999' 
TABS,ioos:station:wmo:42048:1,2005-11-01T13:00:00Z,27.9396,-96.8429,2.0,221.9573979,17.32024249,-99999.0,'11111222,11111222,99999999' 
TABS,ioos:station:wmo:42048:1,2005-11-01T13:30:00Z,27.9396,-96.8429,2.0,216.0295295,17.18784745,-99999.0,'11111222,11111222,99999999' 
TABS,ioos:station:wmo:42048:1,2005-11-01T14:00:00Z,27.9396,-96.8429,2.0,219.8625591,17.92645252,-99999.0,'11111222,11111222,99999999' 
TABS,ioos:station:wmo:42048:1,2005-11-01T14:30:00Z,27.9396,-96.8429,2.0,214.5686117,18.08258002,-99999.0,'11111222,11111222,99999999' 
TABS,ioos:station:wmo:42048:1,2005-11-01T15:00:00Z,27.9396,-96.8429,2.0,226.7020716,15.47125399,-99999.0,'11111222,11111222,99999999' 
TABS,ioos:station:wmo:42048:1,2005-11-01T15:30:00Z,27.9396,-96.8429,2.0,220.6171077,11.56673247,-99999.0,'11111222,11111222,99999999' 
TABS,ioos:station:wmo:42048:1,2005-11-01T16:00:00Z,27.9396,-96.8429,2.0,251.2294445,12.43112626,-99999.0,'11111222,11111222,99999999' 
TABS,ioos:station:wmo:42048:1,2005-11-01T16:30:00Z,27.9396,-96.8429,2.0,229.0550477,10.49853799,-99999.0,'11111222,11111222,99999999' 
TABS,ioos:station:wmo:42048:1,2005-11-01T17:00:00Z,27.9396,-96.8429,2.0,224.869319,12.43096939,-99999.0,'11111222,11111222,99999999' 
TABS,ioos:station:wmo:42048:1,2005-11-01T17:30:00Z,27.9396,-96.8429,2.0,225.1740997,9.291426155,-99999.0,'11133222,11111222,99999999' 
TABS,ioos:station:wmo:42048:1,2005-11-01T18:00:00Z,27.9396,-96.8429,2.0,241.3563306,9.7422482,-99999.0,'11133222,11111222,99999999' 
TABS,ioos:station:wmo:42048:1,2005-11-01T18:30:00Z,27.9396,-96.8429,2.0,223.2022936,6.763268441,-99999.0,'11133222,11111222,99999999' 
TABS,ioos:station:wmo:42048:1,2005-11-01T19:00:00Z,27.9396,-96.8429,2.0,209.5676992,6.829385038,-99999.0,'11133222,11111222,99999999' 
TABS,ioos:station:wmo:42048:1,2005-11-01T19:30:00Z,27.9396,-96.8429,2.0,237.8433061,6.839130062,-99999.0,'11133222,11111222,99999999' 
TABS,ioos:station:wmo:42048:1,2005-11-01T20:00:00Z,27.9396,-96.8429,2.0,270.9097992,3.1503968,-99999.0,'11133222,11111222,99999999' 
TABS,ioos:station:wmo:42048:1,2005-11-01T20:30:00Z,27.9396,-96.8429,2.0,207.2448137,4.52164793,-99999.0,'11133222,11111222,99999999' 
TABS,ioos:station:wmo:42048:1,2005-11-01T21:00:00Z,27.9396,-96.8429,2.0,226.3564328,5.37551858,-99999.0,'11133222,11111222,99999999' 
TABS,ioos:station:wmo:42048:1,2005-11-01T21:30:00Z,27.9396,-96.8429,2.0,231.7301525,4.585368033,-99999.0,'11133222,11111222,99999999' 
TABS,ioos:station:wmo:42048:1,2005-11-01T22:00:00Z,27.9396,-96.8429,2.0,245.5314345,1.95563289,-99999.0,'11133222,11111222,99999999' 
TABS,ioos:station:wmo:42048:1,2005-11-01T22:30:00Z,27.9396,-96.8429,2.0,198.7206944,1.900552551,-99999.0,'11133222,11111222,99999999' 
TABS,ioos:station:wmo:42048:1,2005-11-01T23:00:00Z,27.9396,-96.8429,2.0,225.884977,6.407152254,-99999.0,'11133222,11111222,99999999' 
TABS,ioos:station:wmo:42048:1,2005-11-01T23:30:00Z,27.9396,-96.8429,2.0,321.7664747,1.260357092,-99999.0,'11133222,11111222,99999999' 
TABS,ioos:station:wmo:42048:1,2005-11-02T00:30:00Z,27.9396,-96.8429,2.0,1.461517132,5.881912954,-99999.0,'11133222,11111222,99999999' 
TABS,ioos:station:wmo:42048:1,2005-11-02T01:00:00Z,27.9396,-96.8429,2.0,49.53786713,4.915658654,-99999.0,'11133222,11111222,99999999' 
TABS,ioos:station:wmo:42048:1,2005-11-02T01:30:00Z,27.9396,-96.8429,2.0,333.9447085,5.532250898,-99999.0,'11133222,11111222,99999999' 
TABS,ioos:station:wmo:42048:1,2005-11-02T02:00:00Z,27.9396,-96.8429,2.0,337.4471247,3.963079611,-99999.0,'11133222,11111222,99999999' 
TABS,ioos:station:wmo:42048:1,2005-11-02T03:00:00Z,27.9396,-96.8429,2.0,32.87105739,9.894089145,-99999.0,'11133222,11111222,99999999' 
TABS,ioos:station:wmo:42048:1,2005-11-02T03:30:00Z,27.9396,-96.8429,2.0,35.16656426,3.767665059,-99999.0,'11133222,11111222,99999999' 
TABS,ioos:station:wmo:42048:1,2005-11-02T04:00:00Z,27.9396,-96.8429,2.0,355.9146032,6.596764358,-99999.0,'11133222,11111222,99999999' 
TABS,ioos:station:wmo:42048:1,2005-11-02T04:30:00Z,27.9396,-96.8429,2.0,36.72872588,11.35403453,-99999.0,'11111222,11111222,99999999' 
TABS,ioos:station:wmo:42048:1,2005-11-02T05:00:00Z,27.9396,-96.8429,2.0,44.44144383,13.0538117,-99999.0,'11111222,11111222,99999999' 
TABS,ioos:station:wmo:42048:1,2005-11-02T05:30:00Z,27.9396,-96.8429,2.0,28.59787793,7.186772572,-99999.0,'11133222,11111222,99999999' 
TABS,ioos:station:wmo:42048:1,2005-11-02T06:30:00Z,27.9396,-96.8429,2.0,51.43627253,8.389666263,-99999.0,'11133222,11111222,99999999' 
TABS,ioos:station:wmo:42048:1,2005-11-02T07:00:00Z,27.9396,-96.8429,2.0,27.46361007,7.415713047,-99999.0,'11133222,11111222,99999999' 
TABS,ioos:station:wmo:42048:1,2005-11-02T07:30:00Z,27.9396,-96.8429,2.0,38.9257046,8.753633531,-99999.0,'11133222,11111222,99999999' 
TABS,ioos:station:wmo:42048:1,2005-11-02T08:00:00Z,27.9396,-96.8429,2.0,50.81727622,14.37170832,-99999.0,'11111222,11111222,99999999' 
TABS,ioos:station:wmo:42048:1,2005-11-02T08:30:00Z,27.9396,-96.8429,2.0,45.83938002,9.172158961,-99999.0,'11133222,11111222,99999999' 
TABS,ioos:station:wmo:42048:1,2005-11-02T09:00:00Z,27.9396,-96.8429,2.0,38.49355591,11.29453408,-99999.0,'11111222,11111222,99999999' 
TABS,ioos:station:wmo:42048:1,2005-11-02T09:30:00Z,27.9396,-96.8429,2.0,56.58228994,8.170826152,-99999.0,'11133222,11111222,99999999' 
TABS,ioos:station:wmo:42048:1,2005-11-02T10:30:00Z,27.9396,-96.8429,2.0,53.64701672,9.312378858,-99999.0,'11133222,11111222,99999999' 
TABS,ioos:station:wmo:42048:1,2005-11-02T11:00:00Z,27.9396,-96.8429,2.0,53.90312809,7.264661038,-99999.0,'11133222,11111222,99999999' 
TABS,ioos:station:wmo:42048:1,2005-11-02T11:30:00Z,27.9396,-96.8429,2.0,64.6152614,2.822516608,-99999.0,'11133222,11111222,99999999' 
TABS,ioos:station:wmo:42048:1,2005-11-02T12:00:00Z,27.9396,-96.8429,2.0,46.17609701,7.235226327,-99999.0,'11133222,11111222,99999999' 
TABS,ioos:station:wmo:42048:1,2005-11-02T12:30:00Z,27.9396,-96.8429,2.0,50.08574544,7.418470193,-99999.0,'11133222,11111222,99999999' 
TABS,ioos:station:wmo:42048:1,2005-11-02T13:00:00Z,27.9396,-96.8429,2.0,51.86338523,9.408299528,-99999.0,'11133222,11111222,99999999' 
TABS,ioos:station:wmo:42048:1,2005-11-02T13:30:00Z,27.9396,-96.8429,2.0,43.16727001,5.306015454,-99999.0,'11133222,11111222,99999999' 
TABS,ioos:station:wmo:42048:1,2005-11-02T14:00:00Z,27.9396,-96.8429,2.0,347.5138628,4.393927628,-99999.0,'11133222,11111222,99999999' 
TABS,ioos:station:wmo:42048:1,2005-11-02T15:00:00Z,27.9396,-96.8429,2.0,18.84730795,2.197839849,-99999.0,'11133222,11111222,99999999' 
TABS,ioos:station:wmo:42048:1,2005-11-02T15:30:00Z,27.9396,-96.8429,2.0,4.829044935,5.108130774,-99999.0,'11133222,11111222,99999999' 
TABS,ioos:station:wmo:42048:1,2005-11-02T16:00:00Z,27.9396,-96.8429,2.0,305.2423751,1.126454615,-99999.0,'11133222,11111222,99999999' 
TABS,ioos:station:wmo:42048:1,2005-11-02T17:00:00Z,27.9396,-96.8429,2.0,291.7741804,3.855035668,-99999.0,'11133222,11111222,99999999' 
TABS,ioos:station:wmo:42048:1,2005-11-02T17:30:00Z,27.9396,-96.8429,2.0,306.8702323,3.2,-99999.0,'11133222,11111222,99999999' 
TABS,ioos:station:wmo:42048:1,2005-11-02T18:00:00Z,27.9396,-96.8429,2.0,249.9120346,5.15349396,-99999.0,'11133222,11111222,99999999' 
TABS,ioos:station:wmo:42048:1,2005-11-02T18:30:00Z,27.9396,-96.8429,2.0,253.5138815,8.739267704,-99999.0,'11133222,11111222,99999999' 
TABS,ioos:station:wmo:42048:1,2005-11-02T19:00:00Z,27.9396,-96.8429,2.0,245.6145949,10.46342678,-99999.0,'11111222,11111222,99999999' 
TABS,ioos:station:wmo:42048:1,2005-11-02T19:30:00Z,27.9396,-96.8429,2.0,247.5994524,6.219276485,-99999.0,'11133222,11111222,99999999' 
TABS,ioos:station:wmo:42048:1,2005-11-02T20:00:00Z,27.9396,-96.8429,2.0,247.9275181,10.21892852,-99999.0,'11111222,11111222,99999999' 
TABS,ioos:station:wmo:42048:1,2005-11-02T20:30:00Z,27.9396,-96.8429,2.0,241.7655817,11.05533808,-99999.0,'11111222,11111222,99999999' 
TABS,ioos:station:wmo:42048:1,2005-11-02T21:00:00Z,27.9396,-96.8429,2.0,246.9130698,12.08809332,-99999.0,'11111222,11111222,99999999' 
TABS,ioos:station:wmo:42048:1,2005-11-02T21:30:00Z,27.9396,-96.8429,2.0,247.8134516,11.89034062,-99999.0,'11111222,11111222,99999999' 
TABS,ioos:station:wmo:42048:1,2005-11-02T22:00:00Z,27.9396,-96.8429,2.0,249.2968467,14.6243393,-99999.0,'11111222,11111222,99999999' 
TABS,ioos:station:wmo:42048:1,2005-11-02T22:30:00Z,27.9396,-96.8429,2.0,257.6641486,14.46392063,-99999.0,'11111222,11111222,99999999' 
TABS,ioos:station:wmo:42048:1,2005-11-03T00:00:00Z,27.9396,-96.8429,2.0,239.0602709,16.12429843,-99999.0,'11111222,11111222,99999999' 
TABS,ioos:station:wmo:42048:1,2005-11-03T00:30:00Z,27.9396,-96.8429,2.0,231.8195775,15.48204767,-99999.0,'11111222,11111222,99999999' 
TABS,ioos:station:wmo:42048:1,2005-11-03T01:00:00Z,27.9396,-96.8429,2.0,234.6792068,16.86416615,-99999.0,'11111222,11111222,99999999' 
TABS,ioos:station:wmo:42048:1,2005-11-03T01:30:00Z,27.9396,-96.8429,2.0,226.7990781,17.3397376,-99999.0,'11111222,11111222,99999999' 
TABS,ioos:station:wmo:42048:1,2005-11-03T02:00:00Z,27.9396,-96.8429,2.0,227.4048727,17.5234015,-99999.0,'11111222,11111222,99999999' 
TABS,ioos:station:wmo:42048:1,2005-11-03T02:30:00Z,27.9396,-96.8429,2.0,231.6754573,19.46426983,-99999.0,'11111222,11111222,99999999' 
TABS,ioos:station:wmo:42048:1,2005-11-03T03:00:00Z,27.9396,-96.8429,2.0,220.5207683,20.91645524,-99999.0,'11111222,11111222,99999999' 
TABS,ioos:station:wmo:42048:1,2005-11-03T03:30:00Z,27.9396,-96.8429,2.0,230.0322291,20.39379563,-99999.0,'11111222,11111222,99999999' 
TABS,ioos:station:wmo:42048:1,2005-11-03T04:00:00Z,27.9396,-96.8429,2.0,226.4293301,20.68931367,-99999.0,'11111222,11111222,99999999' 
TABS,ioos:station:wmo:42048:1,2005-11-03T04:30:00Z,27.9396,-96.8429,2.0,227.3856228,20.72205106,-99999.0,'11111222,11111222,99999999' 
TABS,ioos:station:wmo:42048:1,2005-11-03T05:00:00Z,27.9396,-96.8429,2.0,224.139454,21.19437897,-99999.0,'11111222,11111222,99999999' 
TABS,ioos:station:wmo:42048:1,2005-11-03T05:30:00Z,27.9396,-96.8429,2.0,227.8568007,19.15104436,-99999.0,'11111222,11111222,99999999' 
TABS,ioos:station:wmo:42048:1,2005-11-03T06:00:00Z,27.9396,-96.8429,2.0,225.8050294,21.63253337,-99999.0,'11111222,11111222,99999999' 
TABS,ioos:station:wmo:42048:1,2005-11-03T06:30:00Z,27.9396,-96.8429,2.0,230.1716812,22.9045192,-99999.0,'11111222,11111222,99999999' 
TABS,ioos:station:wmo:42048:1,2005-11-03T07:00:00Z,27.9396,-96.8429,2.0,223.6008013,23.17172415,-99999.0,'11111222,11111222,99999999' 
TABS,ioos:station:wmo:42048:1,2005-11-03T07:30:00Z,27.9396,-96.8429,2.0,225.8120308,18.95236661,-99999.0,'11111222,11111222,99999999' 
TABS,ioos:station:wmo:42048:1,2005-11-03T08:30:00Z,27.9396,-96.8429,2.0,219.6072244,19.26198328,-99999.0,'11111222,11111222,99999999' 
TABS,ioos:station:wmo:42048:1,2005-11-03T09:00:00Z,27.9396,-96.8429,2.0,224.785576,18.92230958,-99999.0,'11111222,11111222,99999999' 
TABS,ioos:station:wmo:42048:1,2005-11-03T09:30:00Z,27.9396,-96.8429,2.0,215.9988357,17.89806693,-99999.0,'11111222,11111222,99999999' 
TABS,ioos:station:wmo:42048:1,2005-11-03T10:00:00Z,27.9396,-96.8429,2.0,217.0421777,20.58409337,-99999.0,'11111222,11111222,99999999' 
TABS,ioos:station:wmo:42048:1,2005-11-03T11:00:00Z,27.9396,-96.8429,2.0,221.7174297,18.64871309,-99999.0,'11111222,11111222,99999999' 
TABS,ioos:station:wmo:42048:1,2005-11-03T11:30:00Z,27.9396,-96.8429,2.0,219.1765243,20.76883242,-99999.0,'11111222,11111222,99999999' 
TABS,ioos:station:wmo:42048:1,2005-11-03T12:00:00Z,27.9396,-96.8429,2.0,214.4125554,22.20641574,-99999.0,'11111222,11111222,99999999' 
TABS,ioos:station:wmo:42048:1,2005-11-03T12:30:00Z,27.9396,-96.8429,2.0,219.2851348,20.31004677,-99999.0,'11111222,11111222,99999999' 
TABS,ioos:station:wmo:42048:1,2005-11-03T13:00:00Z,27.9396,-96.8429,2.0,219.7982223,20.82519868,-99999.0,'11111222,11111222,99999999' 
TABS,ioos:station:wmo:42048:1,2005-11-03T13:30:00Z,27.9396,-96.8429,2.0,222.266402,22.09393808,-99999.0,'11111222,11111222,99999999' 
TABS,ioos:station:wmo:42048:1,2005-11-03T14:00:00Z,27.9396,-96.8429,2.0,216.8174192,21.96000911,-99999.0,'11111222,11111222,99999999' 
TABS,ioos:station:wmo:42048:1,2005-11-03T14:30:00Z,27.9396,-96.8429,2.0,219.0140308,22.71590852,-99999.0,'11111222,11111222,99999999' 
TABS,ioos:station:wmo:42048:1,2005-11-03T15:00:00Z,27.9396,-96.8429,2.0,218.4708652,24.19144684,-99999.0,'11111222,11111222,99999999' 
TABS,ioos:station:wmo:42048:1,2005-11-03T15:30:00Z,27.9396,-96.8429,2.0,219.8620255,24.55748562,-99999.0,'11111222,11111222,99999999' 
TABS,ioos:station:wmo:42048:1,2005-11-03T16:00:00Z,27.9396,-96.8429,2.0,212.3252108,23.52596013,-99999.0,'11111222,11111222,99999999' 
TABS,ioos:station:wmo:42048:1,2005-11-03T16:30:00Z,27.9396,-96.8429,2.0,206.896625,22.3923603,-99999.0,'11111222,11111222,99999999' 
TABS,ioos:station:wmo:42048:1,2005-11-03T17:00:00Z,27.9396,-96.8429,2.0,212.6498344,20.62992487,-99999.0,'11111222,11111222,99999999' 
TABS,ioos:station:wmo:42048:1,2005-11-03T17:30:00Z,27.9396,-96.8429,2.0,214.7904741,24.25596834,-99999.0,'11111222,11111222,99999999' 
TABS,ioos:station:wmo:42048:1,2005-11-03T18:00:00Z,27.9396,-96.8429,2.0,214.8548437,24.68926285,-99999.0,'11111222,11111222,99999999' 
TABS,ioos:station:wmo:42048:1,2005-11-03T18:30:00Z,27.9396,-96.8429,2.0,218.5202759,25.06440105,-99999.0,'11111222,11111222,99999999' 
TABS,ioos:station:wmo:42048:1,2005-11-03T19:00:00Z,27.9396,-96.8429,2.0,218.1295115,24.64995943,-99999.0,'11111222,11111222,99999999' 
TABS,ioos:station:wmo:42048:1,2005-11-03T19:30:00Z,27.9396,-96.8429,2.0,222.2598254,25.59116449,-99999.0,'11111222,11111222,99999999' 
TABS,ioos:station:wmo:42048:1,2005-11-03T20:00:00Z,27.9396,-96.8429,2.0,215.0939622,24.33368447,-99999.0,'11111222,11111222,99999999' 
TABS,ioos:station:wmo:42048:1,2005-11-03T20:30:00Z,27.9396,-96.8429,2.0,213.3284414,24.18818307,-99999.0,'11111222,11111222,99999999' 
TABS,ioos:station:wmo:42048:1,2005-11-03T21:00:00Z,27.9396,-96.8429,2.0,220.9703475,21.0318449,-99999.0,'11111222,11111222,99999999' 
TABS,ioos:station:wmo:42048:1,2005-11-03T21:30:00Z,27.9396,-96.8429,2.0,230.1619125,22.79056822,-99999.0,'11111222,11111222,99999999' 
TABS,ioos:station:wmo:42048:1,2005-11-03T22:00:00Z,27.9396,-96.8429,2.0,222.6289255,17.77773889,-99999.0,'11111222,11111222,99999999' 
TABS,ioos:station:wmo:42048:1,2005-11-03T22:30:00Z,27.9396,-96.8429,2.0,217.45308,17.28289617,-99999.0,'11111222,11111222,99999999' 
TABS,ioos:station:wmo:42048:1,2005-11-03T23:00:00Z,27.9396,-96.8429,2.0,223.5601487,16.32517687,-99999.0,'11111222,11111222,99999999' 
TABS,ioos:station:wmo:42048:1,2005-11-03T23:30:00Z,27.9396,-96.8429,2.0,226.7848661,13.39203121,-99999.0,'11111222,11111222,99999999' 
TABS,ioos:station:wmo:42048:1,2005-11-04T00:00:00Z,27.9396,-96.8429,2.0,233.3060915,11.69805539,-99999.0,'11111222,11111222,99999999' 
TABS,ioos:station:wmo:42048:1,2005-11-04T00:30:00Z,27.9396,-96.8429,2.0,234.5899514,9.889211293,-99999.0,'11133222,11111222,99999999' 
TABS,ioos:station:wmo:42048:1,2005-11-04T01:00:00Z,27.9396,-96.8429,2.0,231.7137134,11.24943554,-99999.0,'11111222,11111222,99999999' 
TABS,ioos:station:wmo:42048:1,2005-11-04T01:30:00Z,27.9396,-96.8429,2.0,239.4304264,6.724618948,-99999.0,'11133222,11111222,99999999' 
TABS,ioos:station:wmo:42048:1,2005-11-04T02:00:00Z,27.9396,-96.8429,2.0,240.7896607,8.23750569,-99999.0,'11133222,11111222,99999999' 
TABS,ioos:station:wmo:42048:1,2005-11-04T03:00:00Z,27.9396,-96.8429,2.0,237.8284372,4.394769619,-99999.0,'11133222,11111222,99999999' 
TABS,ioos:station:wmo:42048:1,2005-11-04T03:30:00Z,27.9396,-96.8429,2.0,266.0910439,4.841260167,-99999.0,'11133222,11111222,99999999' 
TABS,ioos:station:wmo:42048:1,2005-11-04T04:00:00Z,27.9396,-96.8429,2.0,231.5816136,3.331215994,-99999.0,'11133222,11111222,99999999' 
TABS,ioos:station:wmo:42048:1,2005-11-04T04:30:00Z,27.9396,-96.8429,2.0,231.6360558,4.833642519,-99999.0,'11133222,11111222,99999999' 
TABS,ioos:station:wmo:42048:1,2005-11-04T05:00:00Z,27.9396,-96.8429,2.0,203.5253861,2.530316186,-99999.0,'11133222,11111222,99999999' 
TABS,ioos:station:wmo:42048:1,2005-11-04T05:30:00Z,27.9396,-96.8429,2.0,216.869601,5.9,-99999.0,'11133222,11111222,99999999' 
TABS,ioos:station:wmo:42048:1,2005-11-04T06:00:00Z,27.9396,-96.8429,2.0,169.5791015,2.653770902,-99999.0,'11133222,11111222,99999999' 
TABS,ioos:station:wmo:42048:1,2005-11-04T06:30:00Z,27.9396,-96.8429,2.0,229.8362564,1.845047425,-99999.0,'11133222,11111222,99999999' 
TABS,ioos:station:wmo:42048:1,2005-11-04T07:00:00Z,27.9396,-96.8429,2.0,173.6747662,4.175416147,-99999.0,'11133222,11111222,99999999' 
TABS,ioos:station:wmo:42048:1,2005-11-04T07:30:00Z,27.9396,-96.8429,2.0,160.0167297,0.351140997,-99999.0,'11133222,11111222,99999999' 
TABS,ioos:station:wmo:42048:1,2005-11-04T08:00:00Z,27.9396,-96.8429,2.0,83.60342975,6.73190909,-99999.0,'11133222,11111222,99999999' 
TABS,ioos:station:wmo:42048:1,2005-11-04T08:30:00Z,27.9396,-96.8429,2.0,65.69550757,7.483234595,-99999.0,'11133222,11111222,99999999' 
TABS,ioos:station:wmo:42048:1,2005-11-04T09:00:00Z,27.9396,-96.8429,2.0,83.37190769,9.010221973,-99999.0,'11133222,11111222,99999999' 
TABS,ioos:station:wmo:42048:1,2005-11-04T09:30:00Z,27.9396,-96.8429,2.0,76.39353701,9.054109564,-99999.0,'11133222,11111222,99999999' 
TABS,ioos:station:wmo:42048:1,2005-11-04T10:00:00Z,27.9396,-96.8429,2.0,92.8326307,7.689395295,-99999.0,'11133222,11111222,99999999' 
TABS,ioos:station:wmo:42048:1,2005-11-04T10:30:00Z,27.9396,-96.8429,2.0,89.16409591,8.910948322,-99999.0,'11133222,11111222,99999999' 
TABS,ioos:station:wmo:42048:1,2005-11-04T11:00:00Z,27.9396,-96.8429,2.0,103.0220769,7.81087063,-99999.0,'11133222,11111222,99999999' 
TABS,ioos:station:wmo:42048:1,2005-11-04T11:30:00Z,27.9396,-96.8429,2.0,102.4009975,8.754250396,-99999.0,'11133222,11111222,99999999' 
TABS,ioos:station:wmo:42048:1,2005-11-04T12:00:00Z,27.9396,-96.8429,2.0,103.989553,8.935015389,-99999.0,'11133222,11111222,99999999' 
TABS,ioos:station:wmo:42048:1,2005-11-04T12:30:00Z,27.9396,-96.8429,2.0,109.4999073,9.017211321,-99999.0,'11133222,11111222,99999999' 
TABS,ioos:station:wmo:42048:1,2005-11-04T13:00:00Z,27.9396,-96.8429,2.0,119.0765687,10.10331629,-99999.0,'11111222,11111222,99999999' 
TABS,ioos:station:wmo:42048:1,2005-11-04T13:30:00Z,27.9396,-96.8429,2.0,121.1337004,9.825197199,-99999.0,'11133222,11111222,99999999' 
TABS,ioos:station:wmo:42048:1,2005-11-04T14:00:00Z,27.9396,-96.8429,2.0,121.1833001,8.053632721,-99999.0,'11133222,11111222,99999999' 
TABS,ioos:station:wmo:42048:1,2005-11-04T14:30:00Z,27.9396,-96.8429,2.0,110.6884814,8.604888146,-99999.0,'11133222,11111222,99999999' 
TABS,ioos:station:wmo:42048:1,2005-11-04T15:00:00Z,27.9396,-96.8429,2.0,111.1246697,8.962282075,-99999.0,'11133222,11111222,99999999' 
TABS,ioos:station:wmo:42048:1,2005-11-04T15:30:00Z,27.9396,-96.8429,2.0,118.6880949,9.415837722,-99999.0,'11133222,11111222,99999999' 
TABS,ioos:station:wmo:42048:1,2005-11-04T16:00:00Z,27.9396,-96.8429,2.0,106.9347807,9.784278205,-99999.0,'11133222,11111222,99999999' 
TABS,ioos:station:wmo:42048:1,2005-11-04T16:30:00Z,27.9396,-96.8429,2.0,97.93192726,11.44954148,-99999.0,'11111222,11111222,99999999' 
TABS,ioos:station:wmo:42048:1,2005-11-04T17:00:00Z,27.9396,-96.8429,2.0,91.11239702,9.271747408,-99999.0,'11133222,11111222,99999999' 
TABS,ioos:station:wmo:42048:1,2005-11-04T17:30:00Z,27.9396,-96.8429,2.0,105.2023732,9.533624704,-99999.0,'11133222,11111222,99999999' 
TABS,ioos:station:wmo:42048:1,2005-11-04T18:30:00Z,27.9396,-96.8429,2.0,87.76456557,8.716633524,-99999.0,'11133222,11111222,99999999' 
TABS,ioos:station:wmo:42048:1,2005-11-04T19:00:00Z,27.9396,-96.8429,2.0,79.24351716,7.715568676,-99999.0,'11133222,11111222,99999999' 
TABS,ioos:station:wmo:42048:1,2005-11-04T19:30:00Z,27.9396,-96.8429,2.0,81.19171094,10.51400019,-99999.0,'11111222,11111222,99999999' 
TABS,ioos:station:wmo:42048:1,2005-11-04T20:00:00Z,27.9396,-96.8429,2.0,77.8762901,11.04637497,-99999.0,'11111222,11111222,99999999' 
TABS,ioos:station:wmo:42048:1,2005-11-04T20:30:00Z,27.9396,-96.8429,2.0,72.9010529,11.25760632,-99999.0,'11111222,11111222,99999999' 
TABS,ioos:station:wmo:42048:1,2005-11-04T21:00:00Z,27.9396,-96.8429,2.0,72.14180217,16.33715397,-99999.0,'11111222,11111222,99999999' 
TABS,ioos:station:wmo:42048:1,2005-11-04T21:30:00Z,27.9396,-96.8429,2.0,83.60496242,14.99329517,-99999.0,'11111222,11111222,99999999' 
TABS,ioos:station:wmo:42048:1,2005-11-04T22:00:00Z,27.9396,-96.8429,2.0,82.93093321,13.97624055,-99999.0,'11111222,11111222,99999999' 
TABS,ioos:station:wmo:42048:1,2005-11-04T23:00:00Z,27.9396,-96.8429,2.0,83.03142032,18.62760586,-99999.0,'11111222,11111222,99999999' 
TABS,ioos:station:wmo:42048:1,2005-11-05T00:00:00Z,27.9396,-96.8429,2.0,84.85541997,12.49031625,-99999.0,'11111222,11111222,99999999' 